[[{"header":{"parameterUnit":"m.s-1","parameterCategory":1,"la1":30.2991,"la2":30.254,"lo1":-89.0895,"lo2":-89.0444,"dy":0.0017,"dx":0.0017,"nx":28,"ny":28,"refTime":"2025-02-27T09:00:00:Z","depth":0,"parameterNumber":2,"parameterNumberName":"U-component_of_WINDS"},"data":[0,0,0,0,0,0,0,0,0,0,0,0,0,0,0,0,0,0,0,0,0,0,0,0,0,0,0,0,0,0,0,0,0,0,0,0,0,0,0,0,0,0,0,0,0,0,0,0,0,0,0,0,0,0,0,0,0,0,1.4985,1.4986,0,1.5064,1.5065,1.5066,1.5057,1.5056,1.5054,1.5053,1.5138,1.5141,1.5145,0,0,0,0,0,0,0,0,0,0,0,0,0,1.4831,1.4834,1.4985,1.4986,1.4987,1.5064,1.5065,1.5066,1.5057,1.5055,1.5054,1.5052,1.5137,1.5141,1.5145,0,0,0,0,0,0,0,0,0,0,0,0,0,1.4903,1.4835,1.4985,1.4992,1.4993,1.5064,1.5065,1.5066,1.5057,1.5055,1.5054,1.5052,1.5135,1.514,1.5145,1.5216,0,0,1.5161,1.5163,0,0,0,0,0,0,0,0,1.4899,1.4908,1.499,1.4991,1.4993,1.5049,1.5042,1.5117,1.5058,1.5033,1.5053,1.5051,1.511,1.5117,1.5136,1.522,1.5223,1.5162,1.5165,1.5167,1.5168,0,0,0,0,0,0,0,1.4894,1.4905,1.5016,1.4991,1.4993,1.4992,1.5,1.5056,1.5081,1.5035,1.5035,1.5044,1.511,1.5131,1.5138,1.5224,1.5162,1.5166,1.5169,1.5171,1.5372,1.5374,0,0,0,0,0,0,1.4886,1.4901,1.5014,1.5019,1.494,1.4997,1.5006,1.5033,1.5081,1.5086,1.5045,1.5043,1.5123,1.5132,1.5141,1.5228,1.5167,1.5172,1.5175,1.537,1.5372,1.5375,0,0,0,0,0,0,1.4883,1.4897,1.5011,1.496,1.4974,1.5001,1.5032,1.5035,1.5056,1.5088,1.5093,1.5062,1.5122,1.5134,1.5197,1.5231,1.5174,1.5179,1.5367,1.5371,1.5374,1.5402,0,0,0,0,0,0,1.4879,1.4895,1.4921,1.496,1.4977,1.5064,1.5034,1.5038,1.5064,1.5062,1.5105,1.511,1.5122,1.519,1.5203,1.5237,1.5183,1.5364,1.5369,1.5373,1.5398,1.5405,1.5412,0,0,0,0,0,1.4873,1.4926,1.4923,1.4936,1.501,1.5066,1.5076,1.5087,1.5067,1.5094,1.5115,1.5109,1.5225,1.5196,1.5211,1.5247,1.5362,1.5367,1.5372,1.5395,1.5404,1.5412,0,0,0,0,0,0,1.4891,1.4932,1.4928,1.4995,1.5027,1.5065,1.5099,1.5096,1.5135,1.5132,1.5145,1.5155,1.5219,1.5239,1.5207,1.5319,1.5291,1.5299,1.5303,1.5312,1.5319,1.5314,1.5187,0,0,0,0,0,1.4903,1.4944,1.4978,1.5034,1.505,1.5072,1.5097,1.5102,1.5137,1.5151,1.5177,1.5212,1.5256,1.5285,1.5328,1.54,1.5411,1.5433,1.544,1.5445,1.5453,1.5495,1.5505,1.5391,1.5391,1.5391,0,0,1.4928,1.4955,1.498,1.5038,1.5064,1.5108,1.5083,1.5131,1.5165,1.5159,1.522,1.524,1.528,1.5349,1.5381,1.5368,1.5486,1.5452,1.5456,1.546,1.5501,1.5512,1.5521,1.5395,1.5394,1.5393,0,0,1.4996,1.502,1.507,1.5096,1.5135,1.5149,1.5161,1.52,1.5213,1.5274,1.5271,1.5312,1.5388,1.5417,1.5442,1.5522,1.5519,1.5536,1.5573,1.5614,1.5623,1.5631,1.5662,1.5673,1.5543,1.5543,1.5543,0,1.5023,1.5088,1.5096,1.5145,1.5171,1.5167,1.5219,1.5244,1.5296,1.5315,1.5299,1.5395,1.5422,1.5498,1.5518,1.5537,1.5553,1.5532,1.5621,1.5629,1.5637,1.5666,1.5678,1.5545,1.5545,1.5544,1.5544,0,1.5119,1.5165,1.5201,1.525,1.528,1.533,1.5348,1.5378,1.5381,1.5397,1.5462,1.5493,1.5543,1.5561,1.5565,1.5639,1.563,1.5618,1.5591,1.565,1.5678,1.5689,1.5548,1.5547,1.5546,1.5546,0,0,1.5201,1.5255,1.5268,1.5291,1.5334,1.537,1.5421,1.5468,1.5495,1.553,1.5575,1.5639,1.5628,1.5656,1.5663,1.5699,1.5763,1.5682,1.5684,1.5698,1.5849,1.586,1.5872,1.576,1.5763,1.5764,1.5847,0,1.5275,1.5363,1.5373,1.5453,1.5496,1.5493,1.5537,1.5569,1.5586,1.5627,1.5646,1.5692,1.5673,1.569,1.5725,1.5748,1.5794,1.5742,1.5804,1.5806,1.5795,1.5886,1.5897,1.5973,1.5857,1.5859,1.586,0,1.5373,1.5411,1.5494,1.5533,1.5551,1.5591,1.5636,1.5674,1.5711,1.5721,1.5753,1.5756,1.581,1.578,1.5856,1.582,1.5846,1.5861,1.5865,1.5872,1.5838,1.5898,1.5998,1.601,1.5877,1.5876,1.5875,0,1.5427,1.5499,1.5559,1.5578,1.5624,1.5652,1.5673,1.5708,1.5736,1.5776,1.5795,1.5841,1.5867,1.5904,1.5919,1.5895,1.5996,1.5966,1.6007,1.6007,1.6029,1.6028,1.6136,1.6043,1.6043,1.6043,1.6043,0,1.5509,1.5561,1.5584,1.562,1.5679,1.569,1.5748,1.5768,1.58,1.5842,1.5842,1.5882,1.5899,1.5942,1.5955,1.6018,1.6029,1.604,1.6043,1.6041,1.604,1.6059,1.6055,1.6046,1.6045,1.6045,1.6044,0,1.558,1.5596,1.5662,1.57,1.571,1.5752,1.5785,1.5822,1.5839,1.5892,1.5905,1.5932,1.5983,1.6002,1.6064,1.6073,1.6145,1.6143,1.6132,1.6134,1.6174,1.6171,1.63,1.6318,1.6212,1.6213,1.6214,0,1.5632,1.5671,1.5713,1.5741,1.5762,1.5807,1.5836,1.5849,1.588,1.5926,1.5958,1.6008,1.6049,1.6131,1.6157,1.6205,1.6205,1.6247,1.6212,1.6209,1.6208,1.6206,1.6211,1.6254,1.6255,1.6256,1.6256,0,1.5723,1.5729,1.577,1.5815,1.585,1.5886,1.5921,1.5944,1.5963,1.5997,1.6049,1.608,1.6144,1.6195,1.6244,1.6267,1.6266,1.6267,1.6279,1.6278,1.6271,1.6277,1.6152,1.6264,1.6263,1.6263,1.6262,1.6262,1.5787,1.5823,1.5858,1.5905,1.5932,1.5965,1.6002,1.6023,1.6065,1.6117,1.6123,1.6179,1.6217,1.6283,1.6308,1.6354,1.6343,1.636,1.6365,1.6369,1.6373,1.6262,1.6362,1.6362,1.6362,1.6362,1.6362,0,1.588,1.5902,1.5945,1.5994,1.6031,1.6024,1.6063,1.6095,1.6144,1.6179,1.6219,1.6279,1.6329,1.6358,1.6409,1.6439,1.644,1.6452,1.6451,1.6457,1.6379,1.6364,1.6451,1.6451,1.6451,1.6451,1.6451,1.6451,1.5932,1.5993,1.6004,1.6079,1.6102,1.6156,1.6179,1.621,1.6238,1.6305,1.6345,1.6364,1.6398,1.645,1.6496,1.6504,1.6523,1.6537,1.6544,1.6471,1.6462,1.6453,1.6439,1.654,1.654,1.6618,1.6618,1.6619]},{"header":{"parameterUnit":"m.s-1","parameterCategory":1,"la1":30.2991,"la2":30.254,"lo1":-89.0895,"lo2":-89.0444,"dy":0.0017,"dx":0.0017,"nx":28,"ny":28,"refTime":"2025-02-27T09:00:00:Z","depth":0,"parameterNumber":3,"parameterNumberName":"V-component_of_WINDS"},"data":[0,0,0,0,0,0,0,0,0,0,0,0,0,0,0,0,0,0,0,0,0,0,0,0,0,0,0,0,0,0,0,0,0,0,0,0,0,0,0,0,0,0,0,0,0,0,0,0,0,0,0,0,0,0,0,0,0,0,-2.1665,-2.1663,0,-2.1492,-2.149,-2.1488,-2.1505,-2.1507,-2.151,-2.1513,-2.1326,-2.1319,-2.1311,0,0,0,0,0,0,0,0,0,0,0,0,0,-2.2,-2.1994,-2.1666,-2.1663,-2.1661,-2.1493,-2.149,-2.1488,-2.1504,-2.1507,-2.1511,-2.1514,-2.1328,-2.132,-2.1311,0,0,0,0,0,0,0,0,0,0,0,0,0,-2.1844,-2.1992,-2.1666,-2.1649,-2.1646,-2.1493,-2.149,-2.1487,-2.1503,-2.1507,-2.1512,-2.1515,-2.1331,-2.132,-2.1309,-2.1159,0,0,-2.1275,-2.127,0,0,0,0,0,0,0,0,-2.1852,-2.1831,-2.1654,-2.165,-2.1646,-2.1524,-2.154,-2.1377,-2.1502,-2.1557,-2.1513,-2.1517,-2.1388,-2.1372,-2.1331,-2.115,-2.1142,-2.1274,-2.1267,-2.1262,-2.1259,0,0,0,0,0,0,0,-2.1863,-2.1839,-2.1597,-2.1651,-2.1646,-2.1647,-2.1629,-2.1509,-2.1452,-2.1553,-2.1554,-2.1533,-2.1387,-2.1342,-2.1327,-2.114,-2.1274,-2.1264,-2.1258,-2.1253,-2.0824,-2.0819,0,0,0,0,0,0,-2.1879,-2.1848,-2.1602,-2.1592,-2.1762,-2.1638,-2.1618,-2.1559,-2.1453,-2.1441,-2.153,-2.1535,-2.1359,-2.134,-2.132,-2.1134,-2.1263,-2.1252,-2.1246,-2.0828,-2.0823,-2.0817,0,0,0,0,0,0,-2.1887,-2.1857,-2.1609,-2.172,-2.1688,-2.1628,-2.1562,-2.1554,-2.1509,-2.1436,-2.1425,-2.1495,-2.1361,-2.1336,-2.1199,-2.1128,-2.1247,-2.1237,-2.0834,-2.0826,-2.082,-2.0763,0,0,0,0,0,0,-2.1896,-2.186,-2.1804,-2.1719,-2.1682,-2.1494,-2.1557,-2.1547,-2.149,-2.1495,-2.14,-2.1388,-2.1362,-2.1216,-2.1188,-2.1115,-2.1228,-2.084,-2.083,-2.0822,-2.0771,-2.0755,-2.0742,0,0,0,0,0,-2.1908,-2.1794,-2.1802,-2.1772,-2.1612,-2.149,-2.1469,-2.1444,-2.1485,-2.1426,-2.138,-2.1391,-2.1141,-2.1201,-2.117,-2.1093,-2.0844,-2.0833,-2.0823,-2.0778,-2.0759,-2.0742,0,0,0,0,0,0,-2.187,-2.1783,-2.179,-2.1646,-2.1575,-2.1493,-2.1419,-2.1424,-2.1338,-2.1346,-2.1316,-2.1294,-2.1155,-2.1111,-2.1179,-2.094,-2.0998,-2.098,-2.0974,-2.0955,-2.0941,-2.0952,-2.1219,0,0,0,0,0,-2.1846,-2.1757,-2.1684,-2.1563,-2.1528,-2.1479,-2.1425,-2.1412,-2.1337,-2.1306,-2.1249,-2.1173,-2.1077,-2.1014,-2.0922,-2.0766,-2.0743,-2.0697,-2.0683,-2.0671,-2.0655,-2.0566,-2.0543,-2.0783,-2.0783,-2.0783,0,0,-2.1793,-2.1734,-2.1679,-2.1554,-2.1498,-2.1403,-2.1454,-2.1352,-2.1279,-2.1289,-2.1157,-2.1112,-2.1025,-2.0877,-2.0809,-2.0836,-2.0584,-2.0657,-2.0649,-2.0639,-2.0553,-2.053,-2.051,-2.0776,-2.0777,-2.0778,0,0,-2.1647,-2.1596,-2.1488,-2.1431,-2.1347,-2.1316,-2.129,-2.1206,-2.1178,-2.1045,-2.105,-2.0962,-2.0798,-2.0735,-2.0681,-2.0512,-2.0517,-2.0482,-2.0403,-2.0317,-2.0298,-2.0281,-2.0217,-2.0194,-2.0468,-2.0467,-2.0467,0,-2.1591,-2.1451,-2.1431,-2.1328,-2.1271,-2.1279,-2.1167,-2.1113,-2.1001,-2.096,-2.0992,-2.0786,-2.0728,-2.0564,-2.0522,-2.048,-2.0446,-2.0491,-2.0303,-2.0286,-2.0269,-2.0208,-2.0184,-2.0463,-2.0464,-2.0464,-2.0465,0,-2.1384,-2.1287,-2.1209,-2.1104,-2.1039,-2.0932,-2.0893,-2.0828,-2.0821,-2.0785,-2.0648,-2.0579,-2.0472,-2.0433,-2.0424,-2.0266,-2.0285,-2.0311,-2.0367,-2.0243,-2.0184,-2.0161,-2.0458,-2.0459,-2.046,-2.0461,0,0,-2.1208,-2.1094,-2.1065,-2.1016,-2.0924,-2.0846,-2.0738,-2.0636,-2.058,-2.0503,-2.0409,-2.027,-2.0293,-2.0232,-2.0216,-2.0141,-2.0006,-2.0175,-2.0172,-2.0143,-1.9824,-1.9802,-1.9775,-2.0011,-2.0007,-2.0003,-1.983,0,-2.105,-2.0862,-2.0841,-2.0671,-2.0578,-2.0585,-2.049,-2.0421,-2.0385,-2.0298,-2.0257,-2.0158,-2.0198,-2.0161,-2.0087,-2.0038,-1.9941,-2.0051,-1.9919,-1.9914,-1.9937,-1.9745,-1.9722,-1.9562,-1.9807,-1.9803,-1.98,0,-2.084,-2.0759,-2.0581,-2.05,-2.046,-2.0376,-2.0279,-2.0199,-2.0119,-2.0098,-2.003,-2.0024,-1.9908,-1.9972,-1.9811,-1.9886,-1.9831,-1.9799,-1.9792,-1.9775,-1.9847,-1.972,-1.9511,-1.9485,-1.9765,-1.9768,-1.977,0,-2.0725,-2.0571,-2.0444,-2.0403,-2.0306,-2.0246,-2.0202,-2.0127,-2.0066,-1.9981,-1.9941,-1.9843,-1.9788,-1.9711,-1.9677,-1.9727,-1.9515,-1.9578,-1.9491,-1.9491,-1.9443,-1.9445,-1.9218,-1.9414,-1.9414,-1.9415,-1.9415,0,-2.0548,-2.0438,-2.0391,-2.0312,-2.0188,-2.0164,-2.004,-1.9999,-1.9932,-1.9842,-1.9842,-1.9758,-1.972,-1.9629,-1.9601,-1.9469,-1.9445,-1.9422,-1.9415,-1.9419,-1.9422,-1.938,-1.9389,-1.9408,-1.9409,-1.9411,-1.9412,0,-2.0397,-2.0361,-2.0223,-2.0143,-2.012,-2.0031,-1.9961,-1.9883,-1.9849,-1.9736,-1.9707,-1.9651,-1.9544,-1.9504,-1.9372,-1.9353,-1.92,-1.9204,-1.9227,-1.9224,-1.9138,-1.9145,-1.8873,-1.8834,-1.9059,-1.9057,-1.9055,0,-2.0285,-2.02,-2.0112,-2.0054,-2.0008,-1.9914,-1.9853,-1.9825,-1.9761,-1.9664,-1.9596,-1.949,-1.9403,-1.9231,-1.9176,-1.9074,-1.9073,-1.8985,-1.9058,-1.9064,-1.9067,-1.9071,-1.9061,-1.897,-1.8968,-1.8966,-1.8965,0,-2.0088,-2.0075,-1.9988,-1.9894,-1.9822,-1.9746,-1.9672,-1.9623,-1.9584,-1.9511,-1.9403,-1.9336,-1.9202,-1.9095,-1.8991,-1.8942,-1.8944,-1.8943,-1.8917,-1.8918,-1.8934,-1.892,-1.9186,-1.8948,-1.895,-1.8951,-1.8952,-1.8952,-1.995,-1.9874,-1.98,-1.9702,-1.9645,-1.9576,-1.9498,-1.9455,-1.9365,-1.9255,-1.9244,-1.9126,-1.9047,-1.8908,-1.8855,-1.876,-1.8783,-1.8746,-1.8736,-1.8726,-1.8718,-1.8953,-1.8741,-1.8742,-1.8742,-1.8742,-1.8743,0,-1.975,-1.9703,-1.9614,-1.9512,-1.9434,-1.9449,-1.9367,-1.93,-1.9197,-1.9125,-1.904,-1.8914,-1.881,-1.8748,-1.8643,-1.8578,-1.8576,-1.8551,-1.8553,-1.8541,-1.8705,-1.8737,-1.8554,-1.8554,-1.8554,-1.8554,-1.8554,-1.8554,-1.9637,-1.9508,-1.9486,-1.9328,-1.9281,-1.9168,-1.912,-1.9055,-1.8996,-1.8856,-1.8771,-1.8733,-1.8663,-1.8553,-1.8457,-1.8441,-1.84,-1.8372,-1.8357,-1.8511,-1.853,-1.8548,-1.8578,-1.8364,-1.8364,-1.8201,-1.8199,-1.8198]}]]